DECAYED

IRIDIUM 33 DEB, 33965 (Decayed)

Orbit data source: Space-Track

IRIDIUM 33 DEB, 33965 was space debris in LEO originally from a launch on Sun, 14 Sep 1997 UTC launched from the Tyuratam Missile And Space Complex (TTMTR). The debris from Iridium 33, an American commercial communications satellite, has been tracked extensively since its accidental collision with the defunct Russian satellite Cosmos 2251 in 2009. This event, occurring at high speed in low Earth orbit (LEO), generated thousands of pieces of space debris, significantly increasing the risk of further collisions. The Iridium 33 debris cloud has impacted space traffic management and orbital debris mitigation strategies, making it a subject of ongoing study in space situational awareness.

Not visible in the next 10 days
Identifier
33965, 1997-051CA
Orbit
Decayed
Last TLE update
6 months ago
Origin
Manufacturer
Unknown
Mission
Decayed spacecraft
Bus & Motor
Unknown
Mass
Unknown
Launch date (UTC)
1997-09-14 (28 years ago)
Launch vehicle
Unknown
Launch site
Tyuratam Missile And Space Complex (TTMTR)
Object type
Payload
Rocket body
Debris
Shape & HBR
Unknown
Radar Cross Section
Small (<0.1 m²)

Expand to show TLE details & history

TLE from 6 months ago
0 IRIDIUM 33 DEB
1 33965U 97051CA  25013.56557970  .12398188 -13667-5  93037-2 0  9996
2 33965  86.2978 132.7811 0018768 322.5747  37.4239 16.14932006842128
Epoch: 2025-01-13T13:34Z
TLE epoch observation values (Epoch: 2025-01-13T13:34:26.086Z)
Latitude
0.00003°
Longitude
175.88761°
Altitude
226.801 km
Speed
7.776 km/s
True Right ascension
08h 51m 07s
True Declination
0° 00' 00"
Sunlit
Object was in full shadow at epoch
Visualization orbit readout
Visualization observer readout
Orbital elements
Apogee altitude
242.466 km
Perigee altitude
217.662 km
Semi-major axis
6,608.201 km
Eccentricity
0.00188
Inclination
86.2978°
RAAN
132.7811°
Arg. of periapsis
322.5747°
True anomaly
Unknown
Mean anomaly
37.4239°
Eccentric anomaly
Unknown
Mean motion
4.04034 °/min
Orbital period
89.1 mins
BSTAR
0.0093037
Loading maneuver chart data...
Loading SW <> Apogee altitude chart data...

IRIDIUM 33 DEB Visibility

Observer location: undefined°, undefined°

This satellite is decayed
Span
Click to sort rows by Start time (UTC) header in descending order
Start Az.
Max El. time (UTC)
Max El. Az.
Max El.
End time (UTC)
End Az.
|